Weather Roundup
Issued by NWS Springfield, MO

Home | Current Version | Previous Version | Text Only | Print | Product List | Glossary On
Versions: 1 2 3 4 5 6 7 8 9 10 11 12 13 14 15 16 17 18 19 20 21 22 23 24 25 26 27 28 29 30 31 32 33 34 35 36 37 38 39 40 41 42 43 44 45 46 47 48 49 50
000
NZUS99 KSGF 092107
HRRSGF

HOURLY WEATHER
NATIONAL WEATHER SERVICE SPRINGFIELD MO
300 PM CST TUE FEB 09 2016

......SGF CWA......

CITY           SKY/WX    TMP DP  RH WIND       PRES   REMARKS
SPRINGFIELD    SUNNY     33   9  36 NW22G28   30.11S WCI  21
JOPLIN         SUNNY     37   6  27 NW21G28   30.18S WCI  26
WEST PLAINS    MOSUNNY   32   7  35 NW20G26   30.05S WCI  20
ROLLA          CLOUDY    24  11  57 NW16G26   30.05R WCI  11
OSAGE BEACH    PTSUNNY   28   9  43 NW14G22   30.11R WCI  17
BRANSON        SUNNY     32   7  34 NW14G25   30.11R WCI  22

......SURROUNDING SGF CWA......

CITY           SKY/WX    TMP DP  RH WIND       PRES   REMARKS
CHANUTE        CLOUDY    38   6  26 N17G28    30.21S WCI  28
PARSONS        SUNNY     40   8  26 NW24G33   30.22R WCI  29
COFFEYVILLE    SUNNY     41   9  26 NW23G33   30.23R
EMPORIA        CLOUDY    34   7  32 N23G32    30.24R WCI  22
GROVE OK       SUNNY     41   9  26 NW15G25   30.21R
ROGERS AR      SUNNY     37   6  27 NW16G28   30.13S WCI  28
SILOAM SPRINGS SUNNY     39   9  28 NW22G30   30.17R WCI  29
HARRISON AR    SUNNY     35   8  32 NW21G30   30.09R WCI  24
NEAR YELLVILLE SUNNY    N/A N/A N/A NW16G31   30.07S

......KANSAS AND MISSOURI......

CITY           SKY/WX    TMP DP  RH WIND       PRES   REMARKS
KANSAS CTY INT MOSUNNY   28   8  43 NW20G28   30.18R WCI  15
DOWNTOWN KC    SUNNY     30   8  39 NW20G29   30.19S WCI  17
COLUMBIA       PTSUNNY   26   9  48 NW23G30   30.08S WCI  11
SEDALIA        PTSUNNY   29  13  51 NW20G26   30.15R WCI  16
ST JOSEPH      SUNNY     28   5  37 NW23G30   30.21F WCI  14
ST LOUIS       FLURRIES  25  12  58 NW14G25   30.03R WCI  13
SPIRIT OF STL  CLOUDY    26  13  57 NW16G25   30.04S WCI  14
KIRKSVILLE     FLURRIES  25   8  48 NW15G26   30.07S WCI  13
WICHITA        PTSUNNY   42  16  34 NW23G31   30.26S
TOPEKA         SUNNY     31   2  29 NW18G32   30.25R WCI  19
OLATHE         SUNNY     28   3  34 N20G30    30.19R WCI  15

......TENNESSEE......

CITY           SKY/WX    TMP DP  RH WIND       PRES   REMARKS
MEMPHIS        MOSUNNY   39  13  34 NW17G30   30.05R WCI  30
NASHVILLE      LGT SNOW  25  17  72 W12       29.97R WCI  14

......ARKANSAS.......

CITY           SKY/WX    TMP DP  RH WIND       PRES   REMARKS
FAYETTEVILLE   SUNNY     39   9  29 N20G30    30.14R WCI  29
FT SMITH       SUNNY     48   6  18 NW13      30.17R
LITTLE ROCK    MOSUNNY   50   9  19 W23G38    30.06R

......OKLAHOMA.......

CITY           SKY/WX    TMP DP  RH WIND       PRES   REMARKS
TULSA          CLOUDY    47  15  27 NW24G36   30.21R
PONCA CITY     SUNNY     45  17  32 NW18G29   30.27S
MCALESTER      LGT RAIN  51  18  27 NW22G29   30.22R
OKLAHOMA CITY  MOSUNNY   50  21  32 N28G35    30.27R

......IOWA............

CITY           SKY/WX    TMP DP  RH WIND       PRES   REMARKS
DES MOINES     MOSUNNY   18   4  54 NW21G29   30.13R WCI   1
QUAD CITIES    PTSUNNY   18   6  59 W23G30    29.98S WCI   0

......ILLINOIS........

CITY           SKY/WX    TMP DP  RH WIND       PRES   REMARKS
QUINCY         MOSUNNY   19   8  62 NW20      30.04R WCI   3
CHICAGO        FLURRIES  17   7  64 NW17      29.85R WCI   1



USA.gov is the U.S. government's official web portal to all federal, state and local government web resources and services.